FW7166 Weather Reports


Display with metric or nautical units.
time (UTC)temp
F
wind
direction
speed
MPH
gust
MPH
rain 1hr
in
rain 24hr
in
rain mn
in
humidity
%
barometer
mb
20260906212233 53 160 0.0 11.0 0.00 0.00 0.00 89 1022.8
20260906210701 53 160 0.0 11.0 0.00 0.00 0.00 88 1022.6
20260906205646 54 160 0.0 11.0 0.00 0.00 0.00 87 1022.8
20260906205146 54 160 0.0 11.0 0.00 0.00 0.00 86 1023.0
20260906204646 54 160 0.0 11.0 0.00 0.00 0.00 86 1022.7
20260906203631 54 161 0.0 11.0 0.00 0.00 0.00 85 1022.7
20260906203131 55 160 0.0 11.0 0.00 0.00 0.00 85 1023.1
20260906202630 55 161 0.0 11.0 0.00 0.00 0.00 84 1022.6
20260906202129 55 162 0.0 11.0 0.00 0.00 0.00 84 1022.8
20260906201629 55 162 0.0 11.0 0.00 0.00 0.00 84 1022.6
20260906201128 55 161 0.0 11.0 0.00 0.00 0.00 83 1022.7
20260906200627 56 161 0.0 11.0 0.00 0.00 0.00 83 1022.8
20260906200127 56 161 0.0 11.0 0.00 0.00 0.00 83 1022.6
20260906195110 56 171 0.0 11.0 0.00 0.00 0.00 82 1022.7
20260906194609 56 201 0.0 11.0 0.00 0.00 0.00 82 1022.5
20260906194109 56 244 0.0 11.0 0.00 0.00 0.00 82 1022.6
20260906193052 56 176 0.0 11.0 0.00 0.00 0.00 81 1022.8
20260906192552 56 201 0.0 11.0 0.00 0.00 0.00 80 1022.6
20260906192052 56 207 0.0 11.0 0.00 0.00 0.00 80 1022.3
20260906191551 56 206 0.0 11.0 0.00 0.00 0.00 80 1023.0
20260906191051 56 194 0.0 11.0 0.00 0.00 0.00 79 1022.3
20260906190551 56 198 0.0 11.0 0.00 0.00 0.00 79 1023.0
20260906190050 56 201 0.0 11.0 0.00 0.00 0.00 79 1022.8
20260906185550 56 223 0.0 11.0 0.00 0.00 0.00 79 1022.7
20260906185049 56 195 0.0 11.0 0.00 0.00 0.00 78 1022.3
20260906184548 56 265 0.0 11.0 0.00 0.00 0.00 78 1022.7
20260906184047 57 199 0.0 11.0 0.00 0.00 0.00 78 1022.7
20260906183546 57 244 0.0 11.0 0.00 0.00 0.00 78 1022.3
20260906183045 57 227 0.0 11.0 0.00 0.00 0.00 78 1022.5
20260906182030 57 228 0.0 11.0 0.00 0.00 0.00 77 1022.4
20260906181014 57 272 0.0 11.0 0.00 0.00 0.00 78 1022.5
20260906180514 57 252 0.0 11.0 0.00 0.00 0.00 77 1022.6
20260906180013 57 239 0.0 11.0 0.00 0.00 0.00 77 1022.5
20260906175513 57 246 0.0 11.0 0.00 0.00 0.00 77 1022.3
20260906175013 57 236 0.0 11.0 0.00 0.00 0.00 77 1022.3
20260906174513 58 231 0.0 11.0 0.00 0.00 0.00 77 1022.4
20260906174012 58 237 0.0 11.0 0.00 0.00 0.00 76 1022.4
20260906172955 58 214 0.0 11.0 0.00 0.00 0.00 76 1022.4
20260906172455 58 225 0.0 11.0 0.00 0.00 0.00 75 1022.3
20260906171439 58 177 0.0 11.0 0.00 0.00 0.00 75 1022.0
20260906170938 58 276 0.0 11.0 0.00 0.00 0.00 75 1022.1
20260906170437 58 217 1.0 11.0 0.00 0.00 0.00 75 1022.0
20260906165936 58 258 0.0 11.0 0.00 0.00 0.00 75 1022.0
20260906165436 58 256 0.0 11.0 0.00 0.00 0.00 75 1022.1
20260906164936 59 234 0.0 11.0 0.00 0.00 0.00 75 1022.3
20260906164436 59 221 0.0 11.0 0.00 0.00 0.00 74 1022.0
20260906163421 59 231 1.0 11.0 0.00 0.00 0.00 73 1022.1
20260906162406 59 213 1.0 11.0 0.00 0.00 0.00 71 1022.1
20260906161350 59 204 1.0 11.0 0.00 0.00 0.00 70 1021.9
20260906160849 60 232 0.0 11.0 0.00 0.00 0.00 69 1021.8
20260906160348 60 229 1.0 11.0 0.00 0.00 0.00 67 1022.0
20260906155847 60 249 1.0 11.0 0.00 0.00 0.00 66 1021.8
20260906155347 61 256 1.0 11.0 0.00 0.00 0.00 65 1021.8
20260906154846 61 227 1.0 11.0 0.00 0.00 0.00 63 1021.9
20260906154346 61 236 0.0 11.0 0.00 0.00 0.00 64 1022.0
20260906153846 62 213 2.0 11.0 0.00 0.00 0.00 63 1022.0
20260906152829 62 235 0.0 11.0 0.00 0.00 0.00 63 1022.2
20260906152329 63 275 0.0 11.0 0.00 0.00 0.00 64 1021.5
20260906151829 63 239 1.0 11.0 0.00 0.00 0.00 64 1021.7
20260906151328 63 272 1.0 11.0 0.00 0.00 0.00 64 1021.8
20260906150827 63 233 0.0 11.0 0.00 0.00 0.00 64 1021.7
20260906150327 62 237 0.0 11.0 0.00 0.00 0.00 64 1021.6
20260906145826 63 313 1.0 11.0 0.00 0.00 0.00 64 1021.5
20260906145325 63 241 2.0 11.0 0.00 0.00 0.00 63 1021.6
20260906144824 64 229 1.0 11.0 0.00 0.00 0.00 62 1021.6
20260906144325 64 233 2.0 11.0 0.00 0.00 0.00 62 1021.5
20260906143308 63 240 1.0 11.0 0.00 0.00 0.00 65 1021.4
20260906142807 62 228 1.0 11.0 0.00 0.00 0.00 66 1021.2
20260906142307 62 235 1.0 11.0 0.00 0.00 0.00 68 1021.2
20260906141807 62 196 1.0 11.0 0.00 0.00 0.00 67 1021.5
20260906141306 63 230 1.0 11.0 0.00 0.00 0.00 66 1021.1
20260906140805 63 218 2.0 11.0 0.00 0.00 0.00 66 1021.2
20260906140305 63 221 2.0 11.0 0.00 0.00 0.00 65 1021.3
20260906135804 63 222 3.0 11.0 0.00 0.00 0.00 64 1021.2
20260906135306 63 246 1.0 11.0 0.00 0.00 0.00 64 1021.0
20260906134802 64 240 0.0 11.0 0.00 0.00 0.00 64 1021.5
20260906134301 64 211 1.0 11.0 0.00 0.00 0.00 64 1021.0
20260906133800 65 240 3.0 11.0 0.00 0.00 0.00 62 1021.1
20260906132229 65 191 3.0 11.0 0.00 0.00 0.00 62 1021.1
20260906131728 65 224 1.0 11.0 0.00 0.00 0.00 64 1020.9
20260906130711 65 206 1.0 11.0 0.00 0.00 0.00 65 1020.9
20260906130211 64 214 2.0 11.0 0.00 0.00 0.00 66 1021.2
20260906125712 64 229 0.0 11.0 0.00 0.00 0.00 68 1020.8
20260906124654 64 231 2.0 11.0 0.00 0.00 0.00 66 1020.9
20260906124155 65 212 1.0 11.0 0.00 0.00 0.00 65 1020.7
20260906123654 64 189 0.0 11.0 0.00 0.00 0.00 66 1020.7
20260906123154 64 238 0.0 11.0 0.00 0.00 0.00 66 1020.7
20260906122654 64 214 0.0 11.0 0.00 0.00 0.00 66 1020.7
20260906122152 63 241 0.0 11.0 0.00 0.00 0.00 67 1020.7
20260906121136 64 238 0.0 11.0 0.00 0.00 0.00 66 1020.9
20260906120634 64 234 0.0 11.0 0.00 0.00 0.00 65 1020.7
20260906120134 64 204 0.0 11.0 0.00 0.00 0.00 66 1020.7
20260906115632 64 239 2.0 11.0 0.00 0.00 0.00 65 1020.9
20260906115132 64 238 0.0 11.0 0.00 0.00 0.00 67 1020.4
20260906114631 64 227 0.0 11.0 0.00 0.00 0.00 66 1020.5
20260906114130 64 235 0.0 11.0 0.00 0.00 0.00 68 1020.3
20260906113629 64 265 0.0 11.0 0.00 0.00 0.00 67 1020.5
20260906113129 64 213 0.0 11.0 0.00 0.00 0.00 68 1020.4
20260906112629 64 213 0.0 11.0 0.00 0.00 0.00 67 1020.1
20260906112129 64 181 0.0 11.0 0.00 0.00 0.00 69 1020.7
20260906111628 64 206 0.0 11.0 0.00 0.00 0.00 70 1020.3
20260906111127 64 232 1.0 11.0 0.00 0.00 0.00 69 1019.9
20260906110628 64 224 1.0 11.0 0.00 0.00 0.00 70 1020.0
20260906110127 64 232 1.0 11.0 0.00 0.00 0.00 70 1020.5
20260906105626 63 240 1.0 11.0 0.00 0.00 0.00 72 1020.1
20260906105126 63 230 1.0 11.0 0.00 0.00 0.00 73 1020.0
20260906104110 63 201 0.0 11.0 0.00 0.00 0.00 73 1020.1
20260906103611 63 241 0.0 11.0 0.00 0.00 0.00 75 1020.1
20260906103110 62 311 0.0 11.0 0.00 0.00 0.00 74 1019.9
20260906102610 62 335 1.0 11.0 0.00 0.00 0.00 76 1019.9
20260906102109 62 223 0.0 11.0 0.00 0.00 0.00 78 1019.9
20260906101609 62 235 0.0 11.0 0.00 0.00 0.00 77 1020.2
20260906101109 62 244 0.0 11.0 0.00 0.00 0.00 77 1019.6
20260906100608 63 245 0.0 11.0 0.00 0.00 0.00 77 1019.7
20260906095553 63 243 0.0 11.0 0.00 0.00 0.00 76 1019.5
20260906095051 63 198 1.0 11.0 0.00 0.00 0.00 77 1019.4
20260906094552 62 212 0.0 11.0 0.00 0.00 0.00 80 1019.5
20260906094051 61 239 0.0 11.0 0.00 0.00 0.00 80 1019.2
20260906093035 61 228 0.0 11.0 0.00 0.00 0.00 82 1019.5
20260906092533 62 234 1.0 11.0 0.00 0.00 0.00 80 1019.5
20260906092032 61 216 0.0 11.0 0.00 0.00 0.00 83 1019.4
20260906091532 62 224 0.0 11.0 0.00 0.00 0.00 83 1019.8
20260906091031 61 235 0.0 11.0 0.00 0.00 0.00 84 1019.3
20260906090531 61 219 0.0 11.0 0.00 0.00 0.00 85 1019.4
20260906090030 61 225 1.0 11.0 0.00 0.00 0.00 84 1019.3
20260906085530 61 231 1.0 11.0 0.00 0.00 0.00 85 1019.3
20260906085030 60 252 1.0 11.0 0.00 0.00 0.00 86 1019.4
20260906084529 60 223 1.0 11.0 0.00 0.00 0.00 87 1019.1
20260906084028 59 267 0.0 11.0 0.00 0.00 0.00 87 1019.3
20260906083527 59 252 0.0 11.0 0.00 0.00 0.00 89 1019.3
20260906083027 59 256 0.0 11.0 0.00 0.00 0.00 91 1019.0
20260906082010 59 223 1.0 11.0 0.00 0.00 0.00 91 1018.9
20260906081510 58 225 1.0 11.0 0.00 0.00 0.00 93 1018.9
20260906081010 58 232 0.0 11.0 0.00 0.00 0.00 94 1018.7
20260906080509 58 270 0.0 11.0 0.00 0.00 0.00 94 1018.7
20260906080008 58 229 0.0 11.0 0.00 0.00 0.00 95 1018.7
20260906074952 57 240 0.0 11.0 0.00 0.00 0.00 96 1018.9
20260906073936 57 228 1.0 11.0 0.00 0.00 0.00 97 1018.4
20260906072919 56 221 0.0 11.0 0.00 0.00 0.00 97 1018.3
20260906072418 56 230 0.0 11.0 0.00 0.00 0.00 98 1018.3
20260906071401 56 248 0.0 11.0 0.00 0.00 0.00 98 1018.2
20260906070900 55 225 0.0 11.0 0.00 0.00 0.00 98 1018.2
20260906070400 55 202 0.0 11.0 0.00 0.00 0.00 99 1018.2
20260906065859 55 211 0.0 11.0 0.00 0.00 0.00 99 1018.1
20260906065358 55 235 0.0 11.0 0.00 0.00 0.00 99 1018.0
20260906064857 54 244 0.0 11.0 0.00 0.00 0.00 99 1018.2
20260906064356 54 235 0.0 11.0 0.00 0.00 0.00 99 1018.2
20260906063856 54 235 0.0 11.0 0.00 0.00 0.00 99 1017.9
20260906063356 53 235 0.0 11.0 0.00 0.00 0.00 99 1017.7
20260906062856 53 249 0.0 11.0 0.00 0.00 0.00 100 1017.9
20260906062356 53 256 0.0 11.0 0.00 0.00 0.00 99 1017.8
20260906060308 51 256 0.0 11.0 0.00 0.00 0.00 99 1017.4
20260906055808 51 256 0.0 11.0 0.00 0.00 0.00 99 1017.8
20260906055307 50 256 0.0 11.0 0.00 0.00 0.00 99 1017.5
20260906054806 50 250 0.0 11.0 0.00 0.00 0.00 99 1017.6
20260906054306 50 247 0.0 11.0 0.00 0.00 0.00 99 1017.6
20260906053805 50 247 0.0 11.0 0.00 0.00 0.00 99 1017.4
20260906053305 50 247 0.0 11.0 0.00 0.00 0.00 99 1017.5
20260906052805 50 247 0.0 11.0 0.00 0.00 0.00 99 1017.3
20260906052305 49 247 0.0 11.0 0.00 0.00 0.00 99 1017.5
20260906051803 49 247 0.0 11.0 0.00 0.00 0.00 99 1017.2
20260906050746 49 248 0.0 11.0 0.00 0.00 0.00 99 1017.3
20260906050246 49 248 0.0 11.0 0.00 0.00 0.00 99 1017.1
20260906045746 48 248 0.0 11.0 0.00 0.00 0.00 99 1017.1
20260906045245 48 248 0.0 11.0 0.00 0.00 0.00 99 1017.0
20260906044744 48 248 0.0 11.0 0.00 0.00 0.00 99 1017.1
20260906044243 48 248 0.0 11.0 0.00 0.00 0.00 99 1017.1
20260906043743 48 248 0.0 11.0 0.00 0.00 0.00 99 1016.9
20260906043243 48 248 0.0 11.0 0.00 0.00 0.00 98 1016.7
20260906042743 47 248 0.0 11.0 0.00 0.00 0.00 98 1016.6
20260906042243 47 248 0.0 11.0 0.00 0.00 0.00 98 1016.4
20260906041743 47 248 0.0 11.0 0.00 0.00 0.00 98 1016.6
20260906041242 47 248 0.0 11.0 0.00 0.00 0.00 98 1016.4
20260906040227 47 248 0.0 11.0 0.00 0.00 0.00 98 1016.4
20260906035727 47 248 0.0 11.0 0.00 0.00 0.00 98 1016.3
20260906035226 47 248 0.0 11.0 0.00 0.00 0.00 98 1016.1
20260906034725 47 248 0.0 11.0 0.00 0.00 0.00 98 1016.3
20260906034224 47 248 0.0 11.0 0.00 0.00 0.00 97 1016.2
20260906033209 47 248 0.0 11.0 0.00 0.00 0.00 97 1016.2
20260906032709 47 248 0.0 11.0 0.00 0.00 0.00 97 1016.1
20260906032209 47 248 0.0 11.0 0.00 0.00 0.00 97 1015.8
20260906031708 47 248 0.0 11.0 0.00 0.00 0.00 97 1015.8
20260906031208 47 248 0.0 11.0 0.00 0.00 0.00 97 1015.9
20260906030707 47 248 0.0 11.0 0.00 0.00 0.00 97 1015.9
20260906030207 48 248 0.0 11.0 0.00 0.00 0.00 97 1015.7
20260906025706 48 248 0.0 11.0 0.00 0.00 0.00 97 1015.8
20260906025205 48 248 0.0 11.0 0.00 0.00 0.00 97 1015.6
20260906024704 48 248 0.0 11.0 0.00 0.00 0.00 97 1015.7
20260906024204 48 248 0.0 11.0 0.00 0.00 0.00 97 1015.5
20260906023148 49 248 0.0 11.0 0.00 0.00 0.00 97 1015.4
20260906022648 49 248 0.0 11.0 0.00 0.00 0.00 97 1015.6
20260906022147 49 248 0.0 11.0 0.00 0.00 0.00 97 1015.6
20260906021646 49 248 0.0 11.0 0.00 0.00 0.00 97 1015.5
20260906021146 49 248 0.0 11.0 0.00 0.00 0.00 97 1015.4
20260906020645 50 248 0.0 11.0 0.00 0.00 0.00 97 1015.4
20260906020144 50 248 0.0 11.0 0.00 0.00 0.00 97 1015.3
20260906015128 51 248 0.0 11.0 0.00 0.00 0.00 98 1015.3
20260906014113 51 248 0.0 11.0 0.00 0.00 0.00 98 1015.2
20260906013613 51 248 0.0 11.0 0.00 0.00 0.00 98 1015.1
20260906012557 51 248 0.0 11.0 0.00 0.00 0.00 98 1014.8
20260906012057 51 248 0.0 11.0 0.00 0.00 0.00 98 1014.9
20260906011556 51 248 0.0 11.0 0.00 0.00 0.00 98 1014.6
20260906011056 51 248 0.0 11.0 0.00 0.00 0.00 98 1014.7
20260906010040 52 248 0.0 11.0 0.00 0.00 0.00 98 1014.7
20260906005539 52 248 0.0 11.0 0.00 0.00 0.00 98 1014.4
20260906005039 52 248 0.0 11.0 0.00 0.00 0.00 98 1014.4
20260906004538 52 248 0.0 11.0 0.00 0.00 0.00 98 1014.3
20260906004037 52 248 0.0 11.0 0.00 0.00 0.00 98 1014.3
20260906003537 52 248 0.0 11.0 0.00 0.00 0.00 98 1014.3
20260906003037 52 247 0.0 11.0 0.00 0.00 0.00 98 1014.3
20260906002536 52 239 0.0 11.0 0.00 0.00 0.00 98 1014.2
20260906002036 52 234 0.0 11.0 0.00 0.00 0.00 98 1014.1
20260906001019 52 232 0.0 11.0 0.00 0.00 0.00 98 1014.1
20260906000519 52 232 0.0 11.0 0.00 0.00 0.00 98 1014.1
20260906000018 51 232 0.0 11.0 0.00 0.00 0.00 98 1014.1
20260905235003 51 293 0.0 11.0 0.00 0.00 0.00 98 1013.8
20260905234501 51 317 0.0 11.0 0.00 0.00 0.00 98 1014.0
20260905234001 51 319 0.0 11.0 0.00 0.00 0.00 98 1013.8
20260905233500 51 324 0.0 11.0 0.00 0.00 0.00 98 1013.6
20260905233000 51 263 0.0 11.0 0.00 0.00 0.00 98 1013.4
20260905232459 51 243 0.0 11.0 0.00 0.00 0.00 98 1013.4
20260905231958 50 233 0.0 11.0 0.00 0.00 0.00 98 1013.2
20260905230943 50 233 0.0 11.0 0.00 0.00 0.00 97 1013.0
20260905230443 50 233 0.0 11.0 0.00 0.00 0.00 97 1013.2
20260905225428 50 234 0.0 11.0 0.00 0.00 0.00 97 1013.0
20260905224928 51 229 0.0 11.0 0.00 0.00 0.00 97 1012.7
20260905224426 51 224 0.0 11.0 0.00 0.00 0.00 97 1012.6
20260905223925 51 264 0.0 11.0 0.00 0.00 0.00 97 1012.9
20260905223424 51 288 0.0 11.0 0.00 0.00 0.00 97 1012.4
20260905222407 51 289 0.0 11.0 0.00 0.00 0.00 98 1012.4
20260905221906 51 287 0.0 11.0 0.00 0.00 0.00 98 1012.2
20260905221405 51 250 0.0 11.0 0.00 0.00 0.00 98 1012.1
20260905220905 50 253 0.0 11.0 0.00 0.00 0.00 98 1012.2
20260905220405 50 253 0.0 11.0 0.00 0.00 0.00 97 1011.9
20260905215905 50 241 0.0 11.0 0.00 0.00 1.17 97 1011.8
20260905215405 50 221 0.0 11.0 0.00 0.00 1.17 97 1011.9
20260905214905 50 226 0.0 11.0 0.00 0.00 1.17 97 1011.8
20260905214404 50 219 0.0 11.0 0.00 0.00 1.17 97 1011.5
20260905213904 50 239 0.0 11.0 0.00 0.00 1.17 97 1011.5
20260905213404 50 253 0.0 11.0 0.00 0.00 1.17 97 1011.5
20260905212904 50 253 0.0 11.0 0.00 0.00 1.17 97 1011.6